Overview Statistics Trail Chart Weather Telemetry Raw packets
 

This is the latest recevied weather packets stored in our database for station/object M0HPP-13. If no packets are shown the sender has not sent any weather packets the latest 10 day(s).

<< 19 20 21 22 23 24 25 >>
Time Temp. Humidity Pressure Rain* Wind** Luminosity Snow
1788332886 10° C 92% 1013.1 hPa 0 mm - 78 W/m² -
1788332306 9.44° C 96% 1013.3 hPa 0 mm - 60 W/m² -
1788331686 8.89° C 97% 1013.3 hPa 0 mm - 48 W/m² -
1788331086 7.78° C 97% 1013.2 hPa 0 mm - 43 W/m² -
1788330486 6.67° C 97% 1013.2 hPa 0 mm - 35 W/m² -
1788329886 6.11° C 98% 1013.1 hPa 0 mm - 24 W/m² -
1788329286 5.56° C 99% 1013.1 hPa 0 mm - 19 W/m² -
1788328686 5.56° C 99% 1013 hPa 0 mm - 14 W/m² -
1788328086 5.56° C 99% 1013.1 hPa 0 mm - 9 W/m² -
1788327486 6.11° C 99% 1013 hPa 0 mm - 6 W/m² -
1788326886 6.67° C 99% 1012.9 hPa 0 mm - 4 W/m² -
1788326286 6.67° C 99% 1013 hPa 0 mm - 2 W/m² -
1788325686 6.67° C 99% 1013 hPa 0 mm - 1 W/m² -
1788325086 7.22° C 99% 1013.1 hPa 0 mm - 0 W/m² -
1788324486 7.22° C 99% 1013.1 hPa 0 mm - 0 W/m² -
1788323886 7.22° C 98% 1013.1 hPa 0 mm - 0 W/m² -
1788323286 6.67° C 99% 1013 hPa 0 mm - 0 W/m² -
1788322686 6.11° C 98% 1013 hPa 0 mm - 0 W/m² -
1788322086 6.11° C 99% 1012.8 hPa 0 mm - 0 W/m² -
1788321486 5.56° C 99% 1012.7 hPa 0 mm - 0 W/m² -
1788320886 5.56° C 99% 1012.7 hPa 0 mm - 0 W/m² -
1788320286 5.56° C 99% 1012.7 hPa 0 mm - 0 W/m² -
1788319686 5.56° C 99% 1012.5 hPa 0 mm - 0 W/m² -
1788319086 6.11° C 98% 1012.6 hPa 0 mm - 0 W/m² -
1788318486 6.11° C 98% 1012.7 hPa 0 mm - 0 W/m² -

* Rain latest hour (hover to see other rain measurements)
** Current wind speed in m/s (hover to see current wind gust speed)